Probability
7 8 10 10 10 10 9 9 9 6 4 3 3 3 2 1 1 2 2 1 0 0 0 0 0 0 0 0 0 0 0 0 0 0 1 1 1 0
10 9 10 11 10 10 10 10 10 7 4 4 3 3 2 1 1 2 2 1 1 0 0 0 0 0 0 0 0 0 0 0 0 0 0 0 0 0
11 10 9 10 10 10 10 11 11 9 6 4 5 5 3 3 3 3 3 2 2 1 0 0 0 0 0 0 0 0 0 0 0 0 0 0 0 0
11 10 8 8 9 10 11 12 11 9 6 5 6 6 4 3 3 3 3 3 2 1 0 0 0 0 0 0 0 0 0 0 0 0 0 0 0 0
10 9 7 7 8 10 12 12 11 9 7 6 6 6 4 3 3 2 2 2 2 0 0 0 0 0 0 0 0 0 0 0 0 0 0 0 0 0
9 8 7 6 8 9 10 10 10 9 7 6 6 5 4 3 2 1 1 3 2 1 0 0 0 0 0 0 0 0 0 0 0 0 0 0 0 0
9 9 7 6 6 6 6 6 8 8 7 6 6 5 3 2 1 0 2 4 4 1 0 0 0 1 1 0 0 0 0 0 0 0 0 0 0 0
10 9 8 6 4 3 2 2 4 5 5 4 3 3 3 2 1 1 3 5 5 3 1 0 0 1 2 1 0 0 0 0 0 0 0 0 0 0
10 9 8 5 3 2 1 1 2 2 2 1 1 2 2 2 1 1 2 3 4 3 1 0 0 1 1 1 0 0 0 0 0 0 0 0 0 0
9 8 7 5 3 2 2 2 2 2 1 0 0 1 1 1 1 1 1 1 2 2 1 0 0 0 0 0 0 0 0 0 0 0 0 0 0 0
6 6 6 4 2 1 2 3 4 3 1 0 0 0 0 0 0 0 0 0 0 1 1 0 0 0 0 0 0 0 0 0 0 0 0 0 0 0
4 4 4 3 1 0 2 3 4 3 1 0 0 0 0 0 0 0 0 1 1 0 0 0 0 0 0 0 0 0 0 0 0 0 0 0 0 0
3 3 3 2 0 0 1 3 3 1 1 0 0 0 0 0 0 0 0 1 1 0 0 0 0 0 0 0 0 0 0 0 0 0 0 0 0 0
2 3 3 1 0 0 1 1 1 0 0 0 0 0 0 0 0 0 0 0 0 0 0 0 0 0 0 0 0 0 0 0 0 0 0 0 0 0
2 3 2 1 0 0 0 0 0 0 0 0 0 0 0 0 0 0 0 0 0 0 0 0 0 0 0 0 0 0 0 0 0 0 0 0 0 0
2 3 3 1 0 0 0 0 0 0 0 0 0 0 1 0 0 0 0 0 0 0 0 0 0 0 0 0 0 0 0 0 0 0 0 0 0 0
2 3 3 2 1 1 1 1 1 1 0 0 0 0 0 0 0 0 0 0 0 0 0 0 0 0 0 0 0 0 0 0 0 0 0 0 0 0
1 2 3 3 3 3 3 3 2 1 1 0 0 0 0 0 0 0 0 0 0 0 0 0 0 0 0 0 0 0 0 0 0 0 0 0 0 0
1 2 3 3 4 5 4 4 3 3 2 1 1 0 0 0 0 0 0 0 0 0 0 0 0 0 0 0 0 0 0 0 0 0 0 0 0 0
0 1 1 3 4 5 5 4 4 4 4 4 2 1 0 0 0 0 0 0 0 0 0 0 0 0 0 0 0 0 0 0 0 0 0 0 0 0
0 0 1 2 3 4 5 5 4 4 5 5 3 2 1 0 0 0 0 0 0 0 0 0 0 0 0 0 0 0 0 0 0 0 0 0 0 0
0 0 0 1 3 4 4 4 4 4 4 4 3 3 2 0 0 0 0 0 0 0 0 0 0 0 0 0 0 0 0 0 0 0 0 0 0 0
0 0 0 1 2 3 3 3 3 3 3 3 3 3 1 0 0 0 0 0 0 0 0 0 0 0 0 0 0 0 0 0 0 0 0 0 0 0
Wind_Speed
2 2 2 2 2 2 2 3 3 2 1 2 2 2 2 3 4 4 5 9 9 8 8 8 8 8 9 9 9 8 8 8 8 8 8 8 8 8
1 1 2 1 1 1 2 2 2 2 1 2 2 2 2 3 5 5 6 11 9 9 8 8 8 8 8 8 8 9 9 9 9 9 9 9 8 8
1 1 1 1 1 1 1 1 1 1 2 2 2 3 3 3 4 4 4 4 6 9 8 8 8 8 8 8 8 8 8 8 8 8 8 8 8 8
1 1 1 0 0 1 0 1 1 2 3 4 3 3 4 4 4 3 4 4 5 9 8 8 7 7 7 7 7 7 7 7 7 7 7 7 7 7
1 1 1 1 1 0 0 1 1 2 3 4 4 3 4 4 4 4 4 2 4 7 9 8 7 7 6 6 6 6 6 6 6 6 6 6 6 6
1 1 1 1 1 0 1 1 1 2 3 4 4 4 3 3 3 3 3 3 2 3 5 5 7 7 6 6 6 5 4 4 4 4 5 5 5 5
1 1 2 4 5 4 2 1 2 2 3 4 4 3 3 3 3 2 3 3 3 2 3 3 4 4 5 7 6 5 4 3 3 3 3 3 3 3
2 2 3 4 6 7 7 7 5 2 2 2 2 3 3 3 2 2 2 2 2 2 1 2 1 2 2 4 6 5 3 3 3 3 2 2 1 1
2 2 2 5 4 5 6 6 6 6 4 1 1 1 2 2 2 3 1 1 0 2 1 1 2 1 1 5 8 4 3 2 2 2 2 1 1 1
3 3 3 4 3 3 4 5 4 4 2 1 1 1 1 1 2 2 2 3 2 2 1 1 1 1 1 4 8 5 4 3 2 2 2 2 2 3
3 3 2 3 4 2 2 4 4 4 5 5 5 4 5 3 1 2 2 3 2 3 1 2 1 1 1 2 6 8 6 5 4 4 3 3 3 5
3 4 4 3 3 1 1 2 3 2 3 5 4 4 4 4 3 2 2 2 1 2 3 1 1 1 1 2 2 4 5 7 7 7 6 5 4 5
3 3 4 5 3 1 1 1 1 1 2 3 3 3 3 3 2 1 1 2 2 0 2 1 1 1 2 1 2 2 2 2 4 5 7 8 7 6
1 2 4 5 3 2 1 1 1 4 3 2 2 2 2 2 2 1 1 1 2 1 1 1 2 2 2 2 1 2 2 2 2 2 3 6 8 9
2 5 4 5 4 4 4 3 4 3 2 2 2 2 1 1 2 2 3 2 2 2 1 2 3 3 3 3 2 2 2 2 2 3 3 3 3 4
3 5 6 5 4 2 4 5 4 2 2 2 1 1 1 2 3 2 2 3 3 3 4 3 3 4 4 3 3 3 3 2 2 3 3 3 4 4
2 3 4 4 4 4 3 3 2 3 3 3 2 2 2 2 2 1 2 3 3 2 3 4 4 4 5 5 4 4 4 3 2 2 3 5 3 3
3 4 3 3 3 3 3 3 3 3 2 3 3 3 3 3 3 2 3 3 3 3 3 2 3 4 5 5 4 5 4 4 3 3 5 5 5 3
5 4 4 3 3 3 3 3 3 2 2 3 3 3 3 3 3 3 3 4 4 4 3 3 3 4 5 4 4 5 4 4 4 4 4 5 5 4
6 4 4 3 3 3 3 3 2 3 3 4 4 4 4 4 4 4 4 4 4 4 4 3 3 4 5 5 4 4 7 5 4 5 5 5 4 3
5 4 4 3 3 3 3 3 3 3 3 4 4 4 4 4 4 4 4 3 5 5 5 4 1 3 5 5 6 5 3 6 5 5 6 6 5 5
5 5 4 4 4 4 4 4 4 4 4 5 4 4 4 4 5 5 5 4 5 5 5 4 3 4 6 6 7 6 5 4 7 8 7 6 5 6
4 4 3 4 4 4 4 4 5 4 4 4 4 4 4 4 5 5 5 5 5 5 6 5 4 4 5 6 7 6 6 6 5 5 6 9 11 9
Wind_Direction
273 261 272 275 266 258 242 234 232 220 187 134 114 86 93 82 85 89 84 87 91 91 88 85 83 79 77 75 74 74 75 75 74 72 70 70 69 67
318 331 300 296 283 254 243 237 244 238 211 98 98 99 88 102 98 99 96 97 88 90 90 88 86 84 82 78 77 77 76 75 74 74 73 71 69 69
357 31 2 341 317 275 252 219 214 170 155 117 109 113 117 108 109 109 108 108 99 97 93 90 88 86 83 81 81 81 80 80 78 76 76 75 72 71
20 16 355 1 307 296 289 167 156 163 162 143 140 139 124 121 117 119 109 105 103 105 106 99 93 88 85 84 83 82 79 79 80 79 79 77 75 73
10 4 352 335 308 26 227 149 163 157 151 151 146 134 134 136 133 116 107 110 117 125 124 116 107 101 97 92 87 84 81 78 77 76 74 74 74 72
58 30 14 350 347 353 126 134 147 141 144 152 143 142 138 149 157 149 144 139 125 121 107 120 128 131 122 114 105 96 92 91 89 84 78 73 69 68
102 84 69 55 42 25 26 84 139 155 150 145 146 146 146 166 179 181 160 154 140 133 145 142 147 147 145 142 122 104 102 100 96 93 87 81 75 69
118 113 113 105 89 74 58 53 45 78 124 150 152 150 160 177 173 188 182 175 156 148 193 146 146 132 135 113 109 114 111 106 103 101 103 105 106 99
101 96 88 93 106 102 100 104 81 58 40 1 126 148 156 170 190 188 182 205 141 125 190 166 160 162 141 110 123 130 130 136 146 144 144 151 179 216
104 102 101 103 91 94 110 104 100 91 81 108 98 92 83 120 205 200 174 175 173 136 204 250 167 176 143 134 143 156 166 179 192 196 200 207 227 236
117 105 111 115 77 39 125 119 114 120 106 87 67 73 71 78 322 233 189 201 190 150 163 259 170 213 190 158 153 171 183 192 202 212 221 229 242 245
136 132 105 96 93 35 143 131 134 124 128 135 138 156 156 150 198 256 257 245 228 161 132 238 213 233 211 173 170 172 188 193 204 210 214 222 235 254
142 141 116 113 116 108 269 138 128 239 178 169 162 158 157 155 173 176 318 310 311 28 111 219 250 241 260 227 201 201 220 216 208 206 208 212 221 246
144 125 112 127 139 158 173 107 219 251 216 185 181 173 170 163 145 139 122 17 355 358 23 270 277 275 268 262 242 215 222 226 235 241 232 197 217 231
90 76 109 148 173 173 166 195 225 230 223 209 192 180 170 148 173 173 172 182 199 209 170 240 260 255 262 269 270 261 248 233 226 241 248 244 245 236
174 152 170 187 208 172 174 198 218 229 254 237 227 199 175 176 205 207 204 200 204 181 175 204 238 257 265 277 280 273 267 257 246 251 267 266 254 250
186 195 192 182 191 193 194 196 213 207 220 235 228 213 210 213 219 223 244 246 244 234 201 196 208 227 248 263 269 275 277 265 250 257 266 269 260 250
225 216 210 210 212 208 206 202 210 214 224 236 234 232 230 227 223 222 236 248 253 254 249 230 226 235 239 221 233 263 267 272 270 250 262 270 270 261
226 232 229 228 232 230 225 226 224 208 223 239 240 240 241 241 238 234 237 246 255 257 253 243 246 257 266 264 206 221 265 276 274 270 265 269 274 276
230 237 238 238 235 239 240 240 236 225 227 243 248 248 247 247 246 247 247 253 259 258 254 247 249 261 278 291 289 243 217 252 267 274 279 278 277 260
222 231 237 240 239 236 237 235 239 237 239 249 249 252 252 254 256 261 263 249 260 264 264 263 267 251 267 268 268 263 223 202 239 268 278 276 277 272
229 233 236 239 233 231 225 227 231 233 231 237 244 245 246 251 254 258 264 261 258 266 271 267 232 238 254 262 270 272 262 235 214 219 239 262 281 288
236 240 237 233 233 236 238 236 236 235 230 233 235 235 240 247 254 257 259 262 267 268 267 267 261 253 258 264 271 276 271 264 257 239 225 209 215 224